Location: Bonrepas
(51.9654°N, 4.8424°E)
Time: 14:38:36
(UTC+00:00)

Daily predictions for brighter satellites

Satellite Brightness Start Highest point End
(mag) Time Altitude Azimuth Time Altitude Azimuth Time Altitude Azimuth
Cosmos 2344 4.4 16:28:44 10° WNW 16:36:27 43° NNE 16:46:22 10° E
SMAP 3.0 16:38:32 10° SSE 16:43:09 69° ENE 16:47:48 10° N
CZ-4B R/B 3.3 16:39:45 10° SSE 16:45:15 69° ENE 16:50:53 10° NNW
SL-24 R/B 4.2 16:41:25 10° SSE 16:45:43 62° ENE 16:50:23 10° N
Timation 1 Rocket 4.5 16:40:31 10° SSW 16:46:33 85° NW 16:52:37 10° NNE
Spot 2 4.4 16:42:23 10° SSE 16:47:01 80° WSW 16:51:25 10° NNW
Cosmos 1603 3.9 16:43:21 10° NNW 16:49:05 83° WSW 16:54:49 10° SSE
Meteor 2-10 Rocket 4.3 16:44:42 10° N 16:49:44 33° ENE 16:54:33 10° SE
AQUARIUS 4.1 16:45:36 10° SSE 16:50:03 69° ENE 16:54:33 10° N
Cosmos 2297 Rocket 3.5 16:44:59 10° WSW 16:50:10 35° NW 16:55:22 10° NNE
PAYLOAD B 4.4 16:44:44 10° SSE 16:50:15 84° WSW 16:55:49 10° NNW
OPS 8737 4.4 16:51:48 10° NW 16:54:46 57° NE 16:58:25 10° ESE
Cosmos 1606 Rocket 3.8 16:51:00 10° N 16:55:16 48° ENE 16:59:32 10° SSE
KORONAS-FOTON 4.2 16:52:26 10° SSW 16:56:20 69° WNW 17:00:16 10° N
H-2A R/B 2.4 16:52:55 10° NNE 16:57:16 48° E 17:01:31 10° S
CZ-2D R/B 4.1 16:54:37 10° SE 16:57:56 28° ENE 17:01:14 10° N
USA 234 3.5 16:53:32 10° ENE 16:59:55 58° N 17:06:20 10° WNW
YAOGAN 1 3.8 16:57:32 10° ESE 17:00:45 21° ENE 17:03:57 10° NNE
CZ-4C R/B 2.6 16:58:05 10° NNE 17:01:15 77° ESE 17:04:24 10° S
ATLAS 5 CENTAUR R/B 1.8 16:57:46 10° SSW 17:01:41 50° SE 17:06:05 10° NE
Cosmos 2082 4.4 16:56:51 10° SW 17:02:27 53° NW 17:08:03 10° NNE
FengYun 1-2 T 4.2 16:57:16 10° SSE 17:02:48 77° ENE 17:08:27 10° NNW
Tsikada Rocket 4.1 16:57:56 10° S 17:04:15 86° W 17:10:33 10° N
NOAA 12 4.3 16:59:30 10° SSE 17:04:44 79° WSW 17:10:01 10° NNW
SL-14 R/B 3.3 17:02:09 10° S 17:05:58 60° E 17:09:51 10° NNE
MOS 1 Rocket 4.4 17:03:10 10° NE 17:06:25 20° E 17:09:37 10° SE
Helios 1A Rocket 4.3 17:03:42 10° ESE 17:06:37 19° ENE 17:09:32 10° NNE
ATLAS 3B R/B 3.9 17:00:12 10° NW 17:06:51 50° WSW 17:13:43 10° SSE
RESURS DK-1 2.3 17:03:07 10° SSW 17:07:15 86° ESE 17:11:26 10° NNE
Cosmos 2228 2.9 17:03:02 10° N 17:07:18 68° ENE 17:11:33 10° SSE
Cosmos 2142 Rocket 4.4 17:03:04 10° N 17:09:17 72° ENE 17:15:23 10° SSE
SKYMED 2 4.5 17:08:42 10° NNE 17:12:31 29° E 17:16:18 10° SSE
Cosmos 1538 Rocket 4.0 17:08:34 10° NNW 17:13:42 57° ENE 17:18:47 10° SE
Aureole 3 4.3 17:11:10 10° NNE 17:13:59 20° ENE 17:16:29 10° ESE
Meteor 2-5 Rocket 3.7 17:09:24 10° S 17:14:56 71° E 17:20:27 10° NNE
CZ-4C R/B 2.5 17:09:47 10° WSW 17:14:58 65° NW 17:21:18 10° NE
CZ-3B R/B 1.1 17:13:44 10° WNW 17:15:47 63° NNE 17:20:06 10° E
SJ 16-02 2.9 17:15:12 10° SE 17:17:52 16° E 17:18:57 15° ENE
Cosmos 1777 Rocket 4.5 17:16:02 10° S 17:20:56 41° ESE 17:25:52 10° NE
Cosmos 2263 Rocket 2.2 17:16:58 10° SSW 17:22:40 83° ESE 17:28:22 10° NNE
Cosmos 1455 3.1 17:21:24 10° N 17:24:42 27° ENE 17:28:00 10° SE
Cosmos 968 Rocket 4.3 17:20:26 10° SW 17:25:23 49° WNW 17:30:23 10° NNE
Cosmos 2058 Rocket 3.2 17:22:18 10° N 17:26:43 51° ENE 17:31:06 10° SSE
Cosmos 1354 Rocket 4.1 17:21:56 10° SSW 17:27:17 89° WNW 17:32:40 10° NNE
USA-17 4.3 17:25:22 10° SW 17:28:51 77° NW 17:30:59 18° NE
Cosmos 1300 3.2 17:25:14 10° NNW 17:29:02 63° W 17:32:48 10° S
COSMOS 2406 4.4 17:25:22 10° NNW 17:30:00 24° NE 17:32:43 18° ENE
NOSS 7 (H) 4.4 17:30:36 10° SW 17:33:44 63° NW 17:35:34 20° NE
Landsat 5 4.1 17:29:52 10° N 17:33:45 52° WNW 17:37:32 10° SW
GENESIS II 4.2 17:32:39 10° SW 17:36:40 85° SE 17:39:28 19° NE
ARGOS 3.7 17:34:15 10° SE 17:39:03 35° ENE 17:43:54 10° N
NOSS 3-1 (C) 4.1 17:33:23 10° NW 17:40:12 53° NNE 17:47:11 14° ESE
Lacrosse 5 1.8 17:35:07 10° WNW 17:40:13 88° SSW 17:45:00 11° ESE
CREW DRAGON DEMO-1 DEB 2.8 17:37:35 10° W 17:40:29 70° SSW 17:41:52 27° ESE
Okean 1-7 Rocket 4.0 17:37:50 10° SSE 17:42:07 42° E 17:46:26 10° NNE
Cosmos 1726 Rocket 3.7 17:37:55 10° NNW 17:42:17 77° W 17:46:40 10° S
ERS-2 2.8 17:42:02 25° ENE 17:43:18 31° E 17:46:34 10° SSE
CZ-2C R/B 4.1 17:45:49 18° ESE 17:45:49 18° ESE 17:48:28 10° SE
ISS -1.6 17:42:46 10° S 17:44:38 14° SE 17:45:00 14° SE
Cosmos 1939 Rocket 3.3 17:41:57 10° S 17:46:04 68° WSW 17:50:09 10° NNW
Meteor 1-24 Rocket 3.7 17:43:43 10° SSW 17:49:04 81° WNW 17:54:24 10° NNE
CSL-04 Debris 4.5 17:44:05 10° SE 17:49:06 42° ENE 17:54:09 10° N
COSMOS 2455 3.0 17:44:13 10° SSW 17:50:01 52° ESE 17:54:02 20° NE
Cosmos 1833 Rocket 3.7 17:48:31 10° NNW 17:53:16 27° NE 17:54:41 24° ENE
Cosmos 1626 Rocket 4.3 17:49:34 10° SSE 17:53:24 30° E 17:54:01 29° ENE
Cosmos 2082 Rocket 3.5 17:50:44 10° NNW 17:54:59 21° NNE 17:55:56 20° NE
Cosmos 1844 4.4 17:50:18 10° SSE 17:55:14 32° ESE 17:57:10 26° ENE
IRS-1C Rocket 4.1 17:51:38 10° SSE 17:56:54 89° ENE 18:02:13 10° NNW
USA 229 DEB 4.1 17:50:16 10° NW 17:57:11 51° NNE 18:01:49 23° E
USA 229 4.1 17:50:22 10° NW 17:57:16 51° NNE 18:01:52 23° E
USA 281 4.4 17:56:41 20° NE 17:58:15 22° NNE 18:02:59 10° NNW
CZ-4 R/B 1.3 17:54:15 10° SSE 17:58:20 70° ENE 18:02:22 10° N
NOAA 15 4.5 17:54:31 10° SSE 17:59:44 69° ENE 18:05:00 10° NNW
COSMO-SKYMED 1 2.5 17:56:28 10° NNE 18:00:51 80° ESE 18:05:11 10° SSW
NOSS 3-4 (A) 4.4 17:56:50 10° W 18:02:33 41° NNW 18:07:06 18° NE
NOSS 3-4 (C) 4.4 17:56:58 10° W 18:02:41 41° NNW 18:07:15 18° NE
SL-08 RB Rocket 4.2 18:05:15 34° E 18:05:49 36° ENE 18:09:57 10° N
Ariane Rocket 4.4 18:10:03 21° NNE 18:10:03 21° NNE 18:12:40 10° N
Cosmos 2227 Rocket 4.3 18:07:06 10° WNW 18:10:58 18° NNW 18:14:51 10° NNE
CZ-4B R/B 1.8 18:08:14 14° N 18:11:02 62° WNW 18:14:20 10° SSW
NOSS 3-1 (A) 4.1 18:05:54 10° NW 18:12:45 54° NNE 18:16:58 28° E
Okean-O 2.5 18:10:02 10° SSE 18:14:28 90° S 18:18:57 10° NNW
Cosmos 923 Rocket 3.9 18:10:03 10° NNW 18:15:26 81° ENE 18:20:46 10° SSE
CZ-2C R/B 3.6 18:10:48 10° S 18:16:06 66° W 18:21:42 10° NNW
Cosmos 1844 Rocket 2.8 18:11:35 10° S 18:17:05 54° ESE 18:19:24 33° NE
Okean O Rocket 4.2 18:14:14 10° SW 18:17:46 23° W 18:21:18 10° NW
Cosmos 1689 Rocket 4.4 18:20:00 15° S 18:20:00 15° S 18:20:37 10° S
H-2A R/B 1.9 18:13:27 10° SSE 18:18:27 86° ENE 18:23:37 10° NNW
Meteor 1-21 Rocket 4.1 18:14:29 10° S 18:19:54 59° E 18:25:18 10° NNE
ATLAS 2AS CENTAUR R/B 3.7 18:12:39 10° W 18:20:17 48° NNW 18:25:30 20° NE
Aureole 2 Rocket 2.9 18:17:19 10° SSW 18:19:28 42° S 18:19:28 42° S
Cosmos 158 Rocket 4.0 18:15:29 10° NNW 18:20:50 87° WSW 18:26:14 10° SSE
Meteor 2-8 Rocket 4.4 18:15:11 10° N 18:21:12 59° ENE 18:27:13 10° SSE
Cosmos 1680 Rocket 3.4 18:17:34 10° NNW 18:22:51 73° ENE 18:26:36 19° SE
SAR-Lupe-4 3.5 18:31:27 75° S 18:31:27 75° S 18:34:45 10° SSW
H-2A R/B 4.2 18:29:17 10° N 18:33:00 26° WNW 18:36:38 10° WSW
Cosmos 1818 3.6 18:28:31 10° SSW 18:33:52 60° SE 18:34:52 51° E
Cosmos 2297 Rocket 4.5 18:33:06 10° NW 18:36:00 14° NNW 18:38:55 10° N
YAOGAN 1 3.1 18:32:12 10° S 18:36:28 59° WSW 18:40:47 10° NNW
CSL-04 Rocket 3.6 18:34:54 10° SSE 18:40:19 90° W 18:45:52 10° NNW
Helios 1A Rocket 3.4 18:37:15 10° S 18:41:21 62° WSW 18:45:30 10° NNW
SAR-Lupe-1 4.5 18:42:35 60° SW 18:42:35 60° SW 18:45:37 10° SSW
USA 234 3.2 18:40:19 43° E 18:42:37 73° NNE 18:49:10 10° WNW
APEX 4.5 18:36:17 10° SSW 18:43:16 86° WNW 18:46:30 31° NNE
MOS 1 Rocket 3.8 18:40:56 11° N 18:45:03 51° WNW 18:49:11 10° SW
Iridium 4 Rocket 3.5 18:39:25 10° N 18:45:15 81° E 18:50:37 10° S
ATLAS 5 CENTAUR R/B 2.7 18:42:28 10° W 18:46:27 37° NNW 18:47:38 32° N
Cosmos 1092 Rocket 3.8 18:40:48 10° S 18:46:58 78° E 18:53:09 10° NNE
Cosmos 1812 Rocket 3.5 18:43:56 10° NNW 18:48:23 86° WSW 18:48:54 69° S
Meteor 2-15 Rocket 4.4 18:45:01 10° N 18:51:04 56° ENE 18:51:11 56° ENE
Cosmos 2344 4.1 18:43:29 10° NW 18:52:22 82° NE 18:59:35 28° SE
SL-24 R/B - RUBIN 2 4.5 18:46:11 10° SW 18:52:54 80° SE 18:54:50 50° NE
SJ 16-02 1.4 18:51:30 10° SSW 18:55:54 72° WNW 18:55:59 72° NW
Cosmos 1455 4.1 18:56:57 10° NNW 19:00:17 29° W 19:03:38 10° SSW
Cosmos 2112 Rocket 4.2 18:55:03 10° NNW 19:00:18 70° WSW 19:02:18 37° S
MetOp-A 4.3 19:04:29 57° NNE 19:04:29 57° NNE 19:08:52 10° NNW
CZ-4C R/B 3.6 18:59:30 10° WNW 19:04:39 32° N 19:06:30 28° NNE
Cosmos 2263 Rocket 4.0 19:02:32 10° W 19:07:17 27° NW 19:10:38 16° N
COSMOS 2406 3.2 19:09:23 10° NNW 19:14:49 77° N 19:14:49 77° N
ERS-2 4.2 19:16:37 26° WNW 19:16:45 26° WNW 19:19:48 10° WSW
ARGOS 4.1 19:14:07 10° S 19:19:14 45° W 19:24:25 10° NNW
ISS -0.6 19:17:36 10° SW 19:17:58 12° SW 19:17:58 12° SW
Lacrosse 5 3.7 19:18:34 10° WNW 19:22:41 26° SW 19:24:15 22° SSW
CZ-2C R/B 3.4 19:27:19 47° SSW 19:27:19 47° SSW 19:31:12 10° SSW
NOSS 3-1 (C) 4.3 19:24:13 10° NW 19:31:29 64° SW 19:34:39 40° S
CZ-4 R/B 4.5 19:31:29 10° WSW 19:33:47 15° W 19:36:05 10° NW
Cosmos 1553 Rocket 4.1 19:29:08 10° NNW 19:35:34 76° W 19:36:14 69° SW
COSMOS 2455 3.7 19:30:22 10° WSW 19:36:07 44° NW 19:37:13 40° NNW
Cosmos 1833 Rocket 3.3 19:32:13 10° NNW 19:36:25 52° NW 19:36:25 52° NW
Cosmos 1844 4.2 19:33:34 10° SW 19:39:07 56° NW 19:39:07 56° NW
Cosmos 2082 Rocket 3.3 19:34:27 10° NNW 19:37:47 35° NNW 19:37:47 35° NNW
Cosmos 2026 Rocket 4.4 19:35:31 10° SSW 19:41:32 59° WNW 19:47:41 10° N
USA 281 3.8 19:43:33 46° N 19:43:33 46° N 19:48:10 10° NNW
USA 229 DEB 4.1 19:41:20 10° NW 19:48:30 65° SW 19:49:18 61° SSW
USA 229 4.1 19:41:26 10° NW 19:48:36 65° SW 19:49:21 62° SSW
USA 267 4.2 19:51:34 36° SSW 19:51:34 36° SSW 19:55:27 10° SW
Cosmos 1844 Rocket 4.0 19:56:02 10° WSW 20:01:07 36° NW 20:01:07 36° NW
NOSS 3-1 (A) 4.2 19:56:48 10° NW 20:04:05 63° SW 20:04:27 63° SW
ATLAS 2AS CENTAUR R/B 4.0 20:06:00 10° WNW 20:12:56 34° N 20:12:56 34° N
USA 234 4.1 20:27:41 43° W 20:27:41 43° W 20:32:18 10° WNW
CZ-4C R/B 4.5 20:49:12 10° NW 20:51:41 22° NNW 20:51:41 22° NNW
